Regional Weather Roundup
Issued by NWS Tiyan, Guam

Home | Current Version | Previous Version | Text Only | Print | Product List | Glossary On
Versions: 1 2 3 4 5 6 7 8 9 10 11 12 13 14 15 16 17 18 19 20 21 22 23 24 25 26 27 28 29 30 31 32 33 34 35 36 37 38 39 40 41 42 43 44 45 46 47 48 49 50
000
ASGM40 PGUM 270812
RWRGUM
WEATHER ROUNDUP FOR THE MARIANAS
NATIONAL WEATHER SERVICE TIYAN GU
600 PM CHST THU NOV 27 2014

GUZ001>004-270900-
MARIANA ISLANDS-

CITY           SKY/WX    TMP DP  RH WIND       PRES   REMARKS
GUAM AIRPORT   PTCLDY    82  75  78 NE15      29.85R
ANDERSEN AFB   CLOUDY    82  75  78 NE24      29.85S
ROTA AIRPORT   PTCLDY    81  75  83 NE14G22   29.86R
TINIAN AP      PTCLDY    82  75  78 E17       29.85S
SAIPAN AP      PTCLDY    82  73  74 E22       29.87S

$$




USA.gov is the U.S. government's official web portal to all federal, state and local government web resources and services.